Tracking 30314 objects as of 20-Apr-2025
HD Live streaming from Space Station
objects crossing your sky now

STARLINK-1739

Track STARLINK-1739 now!
10-day predictions
STARLINK-1739 is classified as:


NORAD ID: 46363
Int'l Code: 2020-062AQ
Perigee: 347.6 km
Apogee: 354.2 km
Inclination: 53.0 °
Period: 91.4 minutes
Semi major axis: 6721 km
RCS: Unknown
Launch date: September 3, 2020
Source: United States (US)
Launch site: AIR FORCE EASTERN TEST RANGE (AFETR)
Your satellite tracking list
Your tracking list is empty




NASA's NSSDC Master Catalog

Two Line Element Set (TLE):
1 46363U 20062AQ  25110.50001157  .00479501  00000-0  29491-2 0  9993
2 46363  53.0303 299.3575 0004847 231.4995 217.3146 15.75304372256985
Source of the keplerian elements: AFSPC